Wind_Speed
8 8 8 9 9 9 9 9 10 10 10 11 11 11 11 10 10 10 9 9 9 9 9 9 8 8 9 9 9 9 9 9 8 8 9 7 4 4 6 6 5 4 4 6 6 7 7 6 7 7 6 7 8 8 10 11 12 13 14 14 14 15 17 18 17 16 14 13 11 9 8 8 12 14 14 14 15 16 17 17 15 15 17 19 20 20 21 23
9 9 9 9 9 9 9 10 10 10 10 11 11 11 11 11 11 10 10 10 10 10 9 9 9 8 8 9 9 9 9 9 10 9 9 7 5 6 6 7 6 4 5 5 5 6 7 5 6 5 5 7 7 7 9 10 11 12 14 13 14 16 16 17 16 16 15 14 12 9 7 8 11 13 13 13 14 14 15 15 13 15 18 20 22 22 21 23
10 9 9 9 9 10 9 10 10 10 10 10 11 11 11 11 11 11 10 10 10 10 10 9 9 8 8 9 9 9 9 9 10 11 9 7 6 7 7 8 6 5 5 5 5 7 5 3 4 5 6 7 8 8 10 11 10 11 12 12 13 14 14 15 15 16 16 14 13 10 8 9 10 11 11 11 12 12 13 13 12 15 19 21 22 22 22 22
11 10 10 10 10 10 10 10 10 10 10 10 10 11 11 11 11 11 11 10 10 10 10 10 9 9 8 9 8 9 8 7 11 10 7 8 8 9 10 8 7 6 6 4 4 7 4 2 2 5 6 8 10 8 8 10 10 9 9 11 13 12 12 14 14 14 15 14 14 11 8 7 8 10 11 10 12 13 13 12 11 14 18 21 22 23 23 22
11 11 11 10 10 10 10 10 10 10 10 10 10 10 11 11 11 11 11 11 10 10 10 10 10 9 9 9 8 8 4 2 10 8 5 9 10 11 11 8 8 7 6 5 5 7 4 1 1 3 4 6 7 6 7 8 10 10 7 8 12 12 12 13 12 13 14 13 14 13 9 7 6 9 9 10 12 14 13 12 11 13 16 19 20 23 23 22
12 12 11 11 11 10 11 10 10 10 10 10 10 10 10 10 11 11 11 11 10 11 10 10 10 9 9 9 7 9 9 3 7 6 8 11 10 11 10 8 9 8 7 7 6 6 3 0 1 3 2 3 4 6 9 8 8 9 7 9 11 12 12 12 12 11 12 12 12 13 11 8 5 7 8 9 12 12 12 11 11 13 16 18 18 22 23 22
13 12 12 12 11 11 11 10 10 10 10 10 10 9 10 10 11 11 11 11 11 11 10 10 10 10 10 9 8 12 12 7 7 6 11 11 10 11 9 8 9 8 9 9 6 4 2 1 1 2 2 4 6 7 9 9 6 7 8 10 11 12 11 9 10 11 10 11 11 12 12 10 5 6 8 8 9 9 10 10 11 13 16 18 18 21 23 22
13 12 12 12 12 12 11 11 10 10 10 10 10 10 9 10 10 10 11 11 11 11 10 10 10 10 10 9 9 11 10 12 7 4 10 10 9 10 8 8 10 8 9 9 6 3 3 3 1 3 2 4 8 8 10 9 7 6 7 9 10 10 9 8 8 10 10 10 10 12 11 12 8 6 7 6 7 8 10 9 10 13 16 18 18 21 24 23
14 13 12 12 12 12 12 11 11 10 10 10 10 10 9 10 10 10 10 10 11 11 11 10 9 10 10 9 9 9 10 17 10 4 7 9 9 9 8 8 10 10 9 9 7 4 5 3 2 4 3 5 9 9 9 9 8 7 7 9 9 8 9 9 8 10 11 10 9 11 11 12 11 8 6 6 6 7 9 9 10 13 16 19 19 21 23 22
14 13 13 13 13 13 12 12 12 11 10 11 11 10 10 10 10 10 10 10 10 10 11 10 9 11 10 11 11 7 12 20 14 10 9 9 9 9 10 10 11 11 8 7 5 5 6 5 4 4 2 7 9 8 9 9 9 7 7 9 8 7 9 10 9 9 11 10 9 10 11 11 12 10 6 5 6 7 9 10 11 13 16 19 20 21 21 21
14 14 14 14 13 13 13 13 13 12 11 11 11 10 10 10 10 10 9 10 10 10 10 10 10 11 10 12 14 7 14 19 15 14 11 10 10 9 11 12 12 12 10 7 4 7 8 6 5 3 1 5 8 8 9 9 8 6 8 9 6 5 7 9 9 11 12 11 9 9 10 11 11 9 6 4 6 8 8 9 11 14 17 19 21 22 21 21
15 15 14 14 14 14 13 13 14 13 12 11 11 11 10 10 10 10 9 9 9 10 10 9 10 11 11 13 15 14 19 17 15 13 12 11 10 10 12 13 13 13 11 4 3 9 9 8 6 3 3 6 10 9 6 6 7 7 8 8 6 6 5 7 8 10 12 11 9 8 9 11 10 7 6 3 5 7 9 11 12 15 17 19 22 23 22 22
16 16 15 15 15 14 14 14 15 14 13 12 12 11 10 10 10 9 9 9 8 9 9 10 10 11 11 11 17 25 22 15 13 12 13 12 10 10 12 14 14 14 10 3 7 10 8 11 9 6 5 7 10 8 6 7 9 9 9 7 8 8 5 8 9 8 10 9 9 8 7 10 10 6 4 3 3 6 8 11 13 15 19 20 22 23 22 24
17 17 16 16 15 15 15 15 16 16 14 13 12 12 11 10 10 9 9 8 8 8 8 9 9 11 14 15 21 25 18 13 12 11 13 12 11 11 12 15 15 15 15 11 15 15 10 12 9 6 3 6 8 9 10 10 10 10 8 6 8 9 8 9 8 6 8 7 8 8 5 7 10 7 3 1 1 3 6 11 13 16 19 22 22 21 22 24
19 18 17 16 15 15 15 16 17 17 15 13 12 12 11 10 10 9 8 7 7 7 7 8 9 12 13 15 20 17 14 15 12 11 14 11 11 11 10 15 16 18 20 16 16 15 11 10 7 6 5 8 12 13 14 12 10 9 7 6 7 11 10 7 5 8 8 4 6 6 3 6 10 9 6 2 3 1 3 9 13 16 19 21 23 21 21 24
20 19 18 17 16 15 16 16 18 17 16 13 12 12 11 10 9 8 8 7 6 6 6 7 9 12 11 11 18 14 11 13 13 13 13 11 11 10 11 15 16 19 19 14 13 11 9 7 7 8 8 9 11 12 14 13 9 7 7 7 7 9 8 7 5 11 11 6 4 3 4 9 10 9 8 5 4 4 2 5 11 17 20 21 24 23 22 24
20 19 18 16 16 16 16 17 18 18 16 13 11 11 11 9 8 8 7 6 6 5 5 6 8 11 12 11 14 11 8 11 15 14 12 11 9 9 13 14 14 17 15 13 13 10 9 8 8 9 9 10 10 11 13 11 7 6 6 7 8 8 7 8 5 11 12 10 6 3 5 8 9 8 7 6 5 6 4 5 10 17 20 21 24 25 23 23
19 19 17 16 16 16 16 17 18 18 16 12 10 11 9 8 7 6 6 6 5 3 1 4 6 6 9 12 8 6 9 14 14 11 11 12 10 10 14 11 11 14 12 12 11 9 8 8 9 10 11 12 12 11 11 8 7 5 6 6 8 8 8 8 5 8 11 7 7 7 6 5 8 8 7 7 4 7 7 5 7 13 17 22 27 27 25 25
19 18 17 16 16 16 17 17 18 18 15 10 9 9 7 6 4 4 6 6 6 7 3 3 9 5 3 7 4 7 13 14 11 8 10 12 13 12 11 9 10 10 8 10 10 7 7 8 9 11 12 12 12 13 12 9 7 6 6 8 9 9 8 8 6 3 7 6 7 6 3 5 7 7 8 9 5 5 9 8 8 12 18 24 28 28 27 27
18 18 17 17 16 16 17 17 18 17 13 9 9 9 7 5 2 5 7 7 8 8 2 4 10 4 3 2 8 13 15 11 8 9 10 10 11 9 8 8 8 8 9 9 9 7 7 10 12 12 12 10 9 10 10 8 6 7 9 9 10 12 9 7 6 4 3 5 4 3 4 6 7 6 8 9 7 4 8 9 10 12 14 19 23 26 27 27
18 18 17 17 16 16 16 16 17 16 11 9 10 11 11 10 6 4 8 7 8 9 4 6 10 5 4 8 12 15 12 7 7 9 10 10 9 8 8 8 7 10 11 10 10 8 8 12 14 13 13 10 7 6 7 7 8 10 10 10 11 12 10 7 7 5 4 6 3 2 3 4 4 7 9 9 8 6 6 8 10 11 9 13 18 24 28 27
17 17 17 17 16 16 15 16 16 13 9 9 11 14 13 12 11 8 7 7 7 9 8 10 12 11 12 10 10 11 8 7 10 10 11 12 10 9 9 8 9 11 9 10 12 11 11 14 14 13 13 11 8 7 9 9 11 13 12 12 11 10 9 8 7 5 5 6 4 4 2 1 1 6 10 10 9 6 4 6 8 9 9 10 16 24 29 29
16 15 16 16 15 15 14 14 13 10 8 10 13 15 13 12 13 9 8 8 6 8 8 10 12 13 15 11 8 7 10 10 11 13 13 12 11 10 9 9 10 11 10 12 13 13 14 12 11 13 11 8 8 9 11 11 12 14 13 13 11 9 9 9 6 3 6 9 8 6 1 3 2 5 9 10 7 5 4 4 5 6 7 9 12 22 29 30
15 15 14 14 14 13 13 13 11 8 9 11 13 14 11 11 13 10 9 8 5 9 9 9 10 11 13 11 8 8 12 11 11 14 14 11 13 11 11 10 10 12 13 13 14 16 15 8 5 10 8 7 9 11 12 12 12 12 13 14 13 12 12 11 8 7 11 11 9 6 2 3 5 3 5 7 6 4 5 5 4 3 4 6 9 19 27 28
15 15 13 13 12 12 12 10 9 8 10 13 14 13 10 12 12 12 10 7 7 10 10 9 8 9 12 12 10 9 14 11 11 15 14 10 13 12 11 10 12 13 13 14 15 17 19 11 6 8 8 9 11 12 12 12 12 13 14 14 14 15 14 12 11 11 13 10 6 6 6 3 4 3 4 5 6 5 3 4 4 2 3 5 7 15 25 28
15 14 13 12 11 11 11 9 8 8 10 11 13 12 11 12 12 13 11 7 10 11 11 12 9 8 12 13 10 11 12 12 12 14 15 10 15 13 11 10 12 13 11 12 14 16 17 14 10 10 10 11 12 12 13 11 12 13 10 10 13 12 11 12 13 14 13 11 7 8 9 3 4 5 6 3 4 6 4 5 5 3 3 5 6 9 20 28
14 13 12 12 11 10 9 8 9 12 11 9 12 12 11 13 12 13 10 9 12 12 11 13 10 8 10 11 12 13 9 11 14 14 15 11 15 14 13 10 11 13 10 9 12 14 15 14 12 11 10 12 12 11 11 10 13 11 5 7 11 10 9 13 15 15 13 12 10 9 11 5 3 4 4 2 2 4 5 5 5 6 4 6 5 5 13 24
11 10 9 9 9 8 8 8 11 14 13 11 14 13 12 13 14 14 8 6 8 14 13 15 13 11 10 11 15 12 6 10 13 12 11 11 14 13 12 10 9 12 11 10 12 10 11 15 15 11 8 9 11 12 11 10 14 14 8 9 11 11 12 13 14 14 12 12 12 9 9 6 2 5 3 1 2 5 8 5 4 5 6 5 4 2 6 17
8 7 6 6 7 7 8 9 11 12 10 10 13 13 14 15 15 13 6 5 9 12 12 14 14 12 11 12 16 12 7 9 7 8 10 11 15 16 12 11 9 10 12 14 16 9 6 9 14 13 12 11 11 11 11 9 13 15 11 9 9 11 13 13 13 14 13 12 12 11 10 5 3 2 1 2 3 9 9 4 4 5 6 5 4 3 3 11
5 4 3 4 5 7 9 11 12 12 11 11 12 14 16 17 15 9 6 5 8 10 12 14 13 12 13 15 17 14 11 9 4 7 12 10 13 18 14 12 9 9 11 15 19 17 9 8 10 11 13 13 13 12 9 7 11 13 12 11 12 14 14 14 13 13 11 9 11 12 11 5 3 4 3 2 2 7 6 3 3 5 6 5 5 5 4 7
5 3 2 3 5 9 11 13 14 13 14 14 15 17 17 16 12 9 6 6 7 10 12 14 13 14 16 17 17 15 14 13 8 8 12 10 13 17 14 12 10 9 12 13 17 19 15 12 12 11 13 13 13 14 10 8 9 11 11 11 14 14 12 11 11 10 8 7 9 9 7 3 3 5 3 5 4 4 3 2 2 2 6 5 6 6 5 5
5 3 1 3 7 9 10 11 12 13 15 16 18 19 15 11 10 11 6 3 7 10 11 13 15 16 17 17 16 15 14 14 11 10 12 11 14 17 15 14 11 9 13 14 14 16 16 17 15 13 14 15 14 13 11 11 11 11 11 11 12 10 5 5 7 6 7 9 9 9 6 3 4 4 3 6 6 4 2 6 6 3 3 3 5 5 4 4
5 2 1 4 7 9 9 10 12 15 17 18 20 20 11 6 12 13 8 5 6 9 11 14 16 16 17 17 15 14 13 13 12 12 13 12 13 16 16 16 14 11 12 11 11 14 16 18 18 16 15 16 16 15 15 13 11 12 13 12 11 8 3 3 5 4 8 9 9 10 5 4 4 5 4 7 8 9 5 4 5 6 3 1 2 4 4 4
4 1 2 5 8 9 10 11 13 16 18 21 22 15 6 7 9 10 10 5 4 8 12 14 16 16 17 17 15 13 12 12 11 11 13 14 14 15 16 16 17 16 12 11 11 13 13 15 20 20 16 16 17 21 21 13 8 12 13 11 13 12 6 4 4 4 7 7 8 9 4 2 2 5 5 4 8 10 8 3 0 4 4 2 1 4 5 3
3 1 3 5 8 9 11 13 15 18 20 23 19 7 8 8 5 7 8 5 6 9 13 14 15 17 16 16 15 13 13 12 11 11 13 15 14 14 15 15 17 17 15 12 10 11 12 10 15 19 14 14 17 19 19 15 11 10 11 13 16 13 9 9 7 5 8 9 6 3 3 1 1 5 5 7 11 10 8 5 1 4 8 6 3 1 5 6
3 2 3 4 7 9 12 15 17 20 24 22 10 6 10 7 3 3 3 6 7 10 15 15 15 16 14 15 14 13 13 10 9 13 14 14 14 14 13 14 15 16 18 15 8 8 9 1 12 15 11 14 15 13 14 13 10 8 10 14 14 9 9 15 10 4 9 9 3 3 4 1 2 5 6 8 10 8 5 3 3 6 9 8 6 3 3 6
3 2 4 4 6 8 11 16 19 22 24 16 5 8 10 7 4 2 1 4 8 11 15 15 15 15 12 12 12 12 12 9 9 13 13 12 14 14 13 12 13 15 17 15 12 10 8 1 11 10 9 12 13 13 16 14 9 9 9 7 7 9 9 10 6 4 7 4 5 2 3 3 4 4 4 6 9 10 7 4 4 5 7 8 6 3 2 2
3 3 5 3 5 9 11 15 21 24 20 11 5 7 6 5 4 3 2 4 9 12 14 13 14 15 12 11 12 13 14 12 10 12 12 10 10 12 13 12 12 14 14 13 13 11 9 7 8 8 7 10 12 13 16 16 13 12 8 6 5 9 8 5 4 6 5 1 3 4 3 1 3 1 4 6 9 9 8 4 4 5 3 4 4 3 2 3
7 7 7 8 1 10 13 17 22 22 17 8 5 7 6 5 4 4 5 6 9 13 13 10 13 13 11 10 13 15 16 13 10 9 10 8 6 7 10 12 12 12 12 13 13 9 8 8 5 7 7 9 13 14 14 16 14 12 10 7 7 8 5 5 8 9 5 1 3 3 3 2 1 2 4 7 5 4 8 6 4 7 4 0 4 3 4 6
12 11 4 10 0 10 14 19 20 19 15 8 7 6 6 6 5 5 8 9 9 11 9 5 10 12 10 8 12 14 14 10 9 9 7 7 7 4 6 10 11 11 11 13 13 9 7 7 5 5 11 11 12 13 13 14 14 14 13 11 10 9 8 8 9 9 3 4 1 2 1 1 2 4 6 9 7 6 9 7 7 10 8 6 7 2 6 5
12 9 4 8 3 10 13 15 15 14 11 7 7 6 6 6 4 4 9 10 7 8 7 4 7 11 8 8 10 13 12 9 9 9 7 9 9 5 7 10 9 10 12 13 14 11 8 8 6 5 15 17 11 10 13 15 15 15 17 18 13 10 12 10 6 6 3 2 2 3 2 2 2 5 5 6 7 7 10 11 10 11 12 10 6 1 5 4
10 6 3 5 1 7 10 9 7 8 9 9 9 9 8 7 4 2 8 10 4 5 5 3 6 10 7 8 10 11 10 8 7 6 7 9 7 2 7 9 8 10 11 12 14 12 9 8 7 7 13 13 6 7 12 14 13 12 14 16 13 11 13 10 5 3 3 3 2 3 4 2 1 5 7 8 8 7 10 13 9 5 6 4 1 2 5 5
6 3 4 4 3 6 8 6 5 8 11 11 9 8 6 6 5 3 9 10 4 5 5 2 5 9 8 8 9 9 8 6 7 7 7 7 6 2 3 7 9 10 10 12 13 12 9 6 5 8 13 11 4 6 9 9 10 11 9 12 14 13 12 10 6 5 4 3 3 2 2 1 2 5 7 6 7 7 5 7 6 2 3 1 2 2 5 5
3 2 6 4 3 6 8 6 5 7 8 9 9 9 7 6 6 5 9 10 7 6 5 2 5 7 7 7 8 9 7 5 7 6 6 4 8 4 2 7 11 9 9 12 10 11 12 6 4 7 11 8 5 5 7 6 9 10 7 9 12 11 10 9 9 6 4 8 10 6 2 3 2 2 4 4 5 6 6 7 8 3 2 3 2 4 3 4
5 2 4 5 3 5 9 6 6 5 3 5 6 7 8 8 7 6 8 9 8 6 5 5 6 5 5 6 7 8 7 4 4 5 6 4 7 6 4 7 10 7 7 9 6 5 10 9 6 6 6 4 4 4 6 6 8 9 7 8 9 9 9 9 10 9 5 6 9 8 5 7 7 5 4 4 5 5 6 7 5 2 4 3 3 2 1 2
6 6 4 4 4 1 4 5 6 4 5 7 7 6 7 8 8 7 8 8 7 6 5 6 6 4 4 7 6 7 7 3 2 5 6 5 5 5 7 7 7 6 7 8 5 4 8 8 8 8 6 6 6 5 6 7 7 7 6 7 9 9 8 8 10 8 2 1 5 7 6 7 9 8 6 6 5 5 7 5 1 5 5 5 6 5 3 6
5 4 4 2 2 1 2 4 5 2 5 7 5 4 6 9 10 8 6 7 7 6 5 6 7 4 5 7 6 6 6 4 4 5 4 5 6 5 7 7 4 3 6 7 6 5 6 6 7 9 10 10 8 6 6 7 8 9 8 8 9 9 9 9 10 7 3 4 3 5 6 9 10 8 7 6 4 5 6 3 3 4 5 5 5 6 7 9
3 1 2 2 2 1 2 2 5 3 5 4 4 4 4 7 10 8 5 6 7 3 4 7 6 5 6 7 5 5 6 4 6 6 3 5 7 6 7 8 5 4 5 7 7 6 6 5 6 9 10 11 10 8 8 8 9 8 8 9 10 9 9 10 10 8 7 6 3 4 6 8 11 9 8 7 7 5 1 4 5 4 3 4 6 8 9 8
8 4 3 3 4 3 3 1 4 5 7 3 4 5 5 6 8 5 3 7 7 3 5 7 4 5 7 5 3 5 4 4 7 6 3 4 7 7 7 8 6 4 5 7 8 6 6 5 6 8 9 11 12 12 11 10 11 9 8 8 9 9 8 8 9 8 7 7 6 4 5 9 11 8 8 9 7 4 2 3 4 3 2 5 8 10 10 8
12 7 6 5 4 4 4 2 2 3 6 2 5 6 8 8 6 4 5 8 9 7 7 7 4 6 7 5 5 6 3 2 5 5 1 2 6 6 4 6 7 7 6 6 7 7 7 5 4 7 9 10 11 12 11 11 11 10 9 9 10 10 7 5 8 9 9 10 8 2 6 9 9 9 7 9 11 7 6 1 4 3 3 6 7 7 8 8
12 9 9 9 7 5 4 4 4 4 4 4 7 5 5 6 5 5 9 8 6 7 7 7 6 6 6 5 5 6 4 4 4 4 1 1 4 4 2 4 6 6 6 6 5 5 6 5 3 5 8 8 8 10 11 11 12 13 12 11 12 12 10 6 4 6 6 7 9 8 6 8 6 7 6 7 10 9 7 5 4 3 5 6 6 6 6 7
13 12 10 8 7 7 5 6 7 4 2 6 7 1 2 6 2 2 6 6 5 7 8 6 5 4 4 4 3 3 2 4 4 2 1 2 2 3 1 3 3 2 4 6 7 6 6 8 7 5 7 9 9 9 9 10 11 12 11 10 11 11 9 5 1 4 3 6 6 6 4 4 6 5 8 10 13 15 11 5 1 3 4 4 4 6 6 7
Wind_Direction
326 323 320 316 311 307 303 297 291 286 282 278 276 273 269 266 263 261 260 256 251 248 248 248 245 241 238 234 232 234 237 242 244 241 237 229 220 202 191 191 170 147 138 123 127 114 91 69 49 41 46 47 43 34 29 31 28 26 29 22 12 20 20 15 18 22 30 30 29 52 63 75 96 112 126 130 135 143 147 152 155 152 155 155 158 165 159 153
321 320 320 317 314 310 306 302 297 291 285 279 276 272 270 267 263 261 258 255 252 247 244 244 243 240 237 233 230 230 233 240 243 244 241 231 217 205 198 200 181 156 142 136 142 109 79 61 37 15 31 34 21 20 26 30 23 21 29 26 17 17 9 7 15 19 27 29 31 49 59 79 96 108 120 128 138 149 150 148 153 157 156 154 159 167 162 158
314 315 316 315 315 311 308 305 301 296 289 282 277 272 270 266 263 261 258 255 252 246 242 239 239 239 236 232 227 227 231 239 247 247 240 227 216 205 207 205 182 162 155 156 149 115 85 61 21 0 30 24 11 12 15 24 20 14 20 19 15 14 2 1 14 18 23 29 33 47 56 74 100 114 119 132 137 142 152 152 154 159 159 155 160 166 162 161
309 311 311 312 313 310 309 305 303 301 294 287 280 274 270 265 263 260 256 255 251 248 242 236 236 234 234 232 225 223 226 248 254 248 234 219 206 200 211 205 179 171 161 169 160 131 117 84 6 349 12 13 8 0 354 5 2 359 9 10 5 7 2 2 18 20 20 30 32 41 54 67 105 122 118 132 137 140 146 147 151 160 163 160 161 164 162 163
306 307 307 309 310 311 309 304 302 301 298 293 284 277 272 266 262 259 256 254 250 248 242 235 233 230 233 229 220 212 179 259 255 240 222 217 207 203 209 197 178 177 167 174 159 130 126 136 319 322 1 19 0 341 351 354 338 336 359 10 359 2 6 2 16 23 22 30 31 35 48 61 100 115 110 122 134 145 143 135 142 153 165 164 163 164 163 167
305 304 304 304 307 309 308 305 301 298 300 296 289 281 273 267 262 257 255 252 250 249 242 236 230 224 230 223 214 193 157 180 252 225 214 215 210 211 208 190 177 179 177 177 162 132 121 150 260 294 352 6 331 341 354 347 326 324 355 9 354 2 10 2 9 22 27 29 31 35 48 61 83 101 111 125 130 144 142 134 143 152 163 163 166 165 164 171
304 302 301 301 303 307 307 306 301 296 296 296 292 284 275 269 262 257 254 252 250 247 242 239 227 221 226 216 210 190 179 225 257 222 220 216 210 213 208 184 177 184 182 178 175 153 154 220 230 293 318 329 345 356 341 339 336 324 346 358 355 5 7 4 6 13 25 28 32 34 45 54 54 97 117 132 132 142 142 139 151 158 165 164 166 163 162 173
303 301 299 299 300 303 305 305 302 296 292 292 293 287 278 270 263 258 254 250 249 247 244 239 225 221 219 211 208 189 199 239 236 213 225 219 217 212 204 184 179 192 186 179 191 204 233 218 248 303 292 335 350 340 330 347 358 342 347 353 357 2 0 7 5 5 17 22 31 30 40 51 51 88 112 129 132 140 140 141 156 161 168 168 164 160 163 173
301 300 298 297 298 300 302 302 301 297 290 286 288 287 281 271 265 259 254 251 249 246 243 238 227 219 212 209 197 171 216 233 220 236 239 221 223 210 197 188 182 196 194 185 195 222 234 215 258 284 291 344 342 321 321 342 342 338 343 351 354 349 359 11 5 8 13 14 22 23 34 51 55 70 97 123 133 148 148 147 160 161 166 168 164 164 168 172
300 299 297 296 296 297 298 299 298 297 290 282 282 284 282 273 265 260 254 252 248 247 244 237 228 215 210 204 176 160 237 239 230 239 241 225 223 209 193 188 189 196 193 186 194 225 230 225 251 263 308 332 329 316 314 308 303 315 330 346 346 337 359 3 1 7 9 18 19 18 34 49 58 66 83 127 141 157 161 155 160 160 164 168 165 169 171 169
298 296 296 296 295 295 295 296 296 296 291 281 277 278 280 273 266 260 254 252 248 247 242 234 229 213 210 199 173 185 243 241 236 227 231 232 219 209 193 187 194 196 189 187 223 249 236 222 240 251 268 319 317 324 323 299 292 307 320 330 318 322 356 353 355 358 2 25 22 19 39 43 53 60 67 129 156 156 165 166 163 158 164 170 166 169 169 167
295 294 295 295 293 293 291 294 295 294 291 281 275 274 276 272 265 259 255 253 247 247 241 232 227 212 210 196 186 219 234 234 240 225 224 230 216 209 196 187 193 198 187 156 288 279 269 248 240 239 249 303 300 308 315 293 305 304 302 309 294 310 333 324 341 351 356 21 26 27 41 35 44 52 54 94 151 152 166 175 171 163 167 172 167 170 169 166
293 293 294 293 292 290 290 293 294 293 290 282 275 269 271 271 265 260 255 252 247 245 240 229 222 214 205 188 205 228 230 233 247 232 223 225 217 210 198 192 193 195 178 125 283 274 274 255 244 229 244 294 286 285 290 290 304 290 287 292 282 302 298 294 321 349 354 12 22 32 39 20 30 38 33 56 111 144 173 183 177 169 169 172 171 174 171 168
292 292 293 292 289 287 289 293 293 293 289 281 273 265 266 268 263 260 254 252 248 239 238 228 218 213 198 196 220 231 231 239 250 236 226 222 216 212 203 200 195 195 189 193 230 232 233 238 235 225 244 328 310 301 296 292 296 282 283 277 270 295 287 287 307 325 342 13 21 29 53 11 19 30 3 341 96 129 179 194 185 181 177 175 178 178 175 175
292 292 292 290 287 287 289 293 294 292 287 279 271 262 260 264 263 259 252 247 243 235 237 224 212 213 202 217 239 241 238 241 247 237 225 218 216 212 209 208 201 206 209 203 215 227 237 229 222 243 273 309 298 289 285 289 290 274 277 267 277 300 291 288 272 263 295 16 31 22 41 351 9 22 357 315 246 169 177 200 191 194 189 181 183 180 180 183
291 291 290 288 285 286 288 293 294 291 287 278 267 258 254 260 259 254 250 241 236 232 232 223 217 209 192 224 244 241 240 238 239 233 220 215 214 208 212 215 212 219 225 226 231 245 256 238 238 261 272 280 274 270 275 284 281 261 268 268 285 304 294 310 286 233 256 305 344 12 18 341 356 6 347 338 266 236 215 208 194 201 199 190 188 182 186 189
289 289 288 285 283 285 288 292 293 290 285 275 263 253 248 255 256 252 243 227 229 230 226 219 213 208 205 227 241 242 237 227 231 228 218 214 199 207 220 219 222 227 234 241 247 261 268 266 267 269 279 276 267 269 269 277 287 260 254 264 283 299 280 300 305 206 235 298 301 301 1 332 334 351 342 342 283 236 235 219 198 204 202 201 199 187 187 190
287 287 286 284 282 283 286 291 291 288 284 275 257 243 241 249 249 246 233 225 221 187 188 215 183 191 232 240 241 231 209 216 229 222 216 209 182 210 227 217 223 229 238 248 256 267 264 271 271 263 271 265 253 258 258 275 310 275 252 275 286 284 248 263 299 204 228 267 254 277 340 307 310 346 349 347 312 232 234 233 215 213 208 213 209 193 187 189
286 284 283 281 280 281 285 289 289 286 284 271 245 231 231 238 242 254 232 221 200 158 84 227 172 128 284 255 199 195 214 226 234 213 212 211 196 216 222 207 219 221 227 249 260 260 246 251 256 250 254 252 243 244 253 274 307 291 278 288 285 283 259 262 303 247 231 246 241 267 295 268 303 346 354 352 345 244 234 241 246 230 211 211 208 194 191 191
286 283 281 279 278 279 282 286 285 284 283 262 229 210 200 168 75 312 247 211 201 186 144 188 171 133 342 226 169 195 228 242 225 209 213 209 199 209 207 197 216 218 211 228 243 243 236 238 242 242 239 249 250 243 260 273 284 300 297 287 282 285 284 285 293 263 251 288 276 217 231 282 313 334 348 353 349 306 254 252 263 249 219 214 208 198 200 196
286 281 279 276 275 277 280 283 282 283 279 244 211 199 195 164 142 254 231 202 209 210 205 175 174 193 186 174 196 213 238 238 196 208 213 197 184 187 203 198 199 221 218 216 231 233 236 241 244 244 239 257 278 260 276 281 269 286 295 288 282 280 286 292 283 264 275 296 291 220 250 300 314 316 335 344 346 335 287 275 277 269 245 230 221 210 210 201
286 281 278 273 273 274 276 278 279 281 267 228 201 201 207 192 185 199 195 190 219 221 208 193 196 204 183 182 228 224 210 196 184 207 212 193 183 183 211 220 203 222 228 217 227 224 230 243 244 244 246 260 276 268 282 287 272 275 281 279 278 285 296 289 275 270 281 282 282 290 282 162 294 315 320 327 344 344 300 285 281 277 266 245 227 214 211 205
289 282 276 272 272 272 273 276 277 274 245 214 199 205 208 198 192 189 179 174 215 238 222 207 204 206 201 209 245 205 179 191 190 209 217 193 183 180 202 230 214 219 227 218 224 220 225 242 237 236 247 259 271 270 273 278 269 264 267 271 272 274 285 289 285 287 288 281 279 286 99 139 238 292 303 310 331 344 329 296 282 288 271 253 228 211 207 205
290 283 277 273 272 269 271 272 269 256 225 202 199 205 201 195 190 185 180 162 191 238 241 229 205 202 211 216 237 202 179 197 200 211 226 197 185 189 198 224 224 223 227 219 226 231 235 257 243 235 252 268 277 275 265 268 268 258 253 261 269 267 280 305 312 311 304 286 270 266 227 205 223 245 293 282 278 322 357 319 288 293 255 238 222 210 205 205
289 282 277 273 270 268 269 265 258 235 204 193 195 197 194 192 188 181 178 167 187 213 226 222 199 201 211 211 223 188 169 200 208 215 236 198 180 199 205 220 226 223 230 223 227 241 246 260 258 242 261 270 274 269 254 257 266 264 255 250 259 272 291 311 303 297 297 288 285 281 265 194 172 225 264 249 264 286 334 321 290 277 251 224 213 209 204 202
290 282 277 273 268 267 265 257 246 212 187 194 193 188 189 183 184 179 178 204 206 198 204 201 192 195 205 217 212 162 171 211 204 214 239 198 175 198 210 223 226 220 231 232 232 242 245 249 244 242 264 269 267 261 249 254 264 268 272 258 256 271 286 288 284 285 286 291 304 276 259 192 158 255 278 260 253 253 278 316 282 251 251 226 224 218 207 203
293 284 277 270 265 262 255 240 218 186 169 190 189 183 183 174 178 173 179 233 211 186 186 184 192 186 184 208 185 158 189 201 182 209 237 204 177 192 205 214 226 226 234 241 238 237 237 242 239 241 262 261 253 250 243 249 255 257 295 296 276 283 284 275 280 284 286 293 292 272 268 264 168 185 238 247 202 221 266 304 260 228 216 218 227 229 213 210
300 288 278 266 256 245 232 215 202 189 179 182 178 175 171 166 172 170 191 259 169 167 185 180 192 196 184 192 172 163 185 167 176 211 219 196 177 181 204 208 221 234 228 234 242 226 220 237 241 239 248 246 242 248 249 241 242 252 295 316 289 286 286 280 281 281 283 287 286 285 283 278 106 124 190 293 333 280 285 290 253 222 209 214 210 187 203 209
309 293 278 254 237 217 205 191 185 189 186 177 172 165 160 163 167 169 222 270 142 158 193 188 191 191 182 183 174 178 183 168 201 207 184 196 183 178 205 213 224 245 226 229 241 226 193 223 237 240 241 245 243 252 267 252 237 253 289 313 289 274 275 273 273 277 281 283 280 283 280 270 84 78 304 0 295 292 308 297 233 200 194 207 195 178 179 199
326 302 271 231 214 190 182 176 173 175 169 168 167 156 155 162 168 186 228 214 160 166 189 195 191 179 177 182 182 191 196 188 197 165 176 208 192 186 205 208 215 249 234 231 241 246 253 240 238 239 231 239 248 255 274 261 244 261 279 289 280 270 266 261 261 270 277 276 271 277 282 282 86 79 6 35 216 274 306 298 241 186 181 197 192 192 194 199
345 319 246 191 184 175 174 171 169 167 162 161 157 151 157 162 177 226 224 157 157 167 179 192 185 175 180 182 184 194 199 193 185 172 184 203 200 199 210 209 211 238 235 234 243 248 253 243 241 243 230 234 251 258 266 255 252 265 266 274 280 270 257 253 256 255 258 270 279 291 302 319 72 94 68 72 130 227 280 5 5 166 179 185 183 196 199 196
349 345 189 175 171 169 171 166 161 161 158 155 154 152 155 168 200 231 230 189 191 179 176 182 178 178 182 184 188 192 194 193 193 198 195 195 200 202 209 213 209 219 224 225 232 235 235 234 237 243 239 235 240 251 258 250 245 250 250 259 275 276 253 255 267 259 267 277 280 295 319 27 82 125 81 63 110 142 38 21 25 76 161 181 172 185 178 172
343 351 128 159 160 161 163 160 160 160 155 154 156 152 154 214 223 213 217 237 203 179 175 171 173 178 180 187 190 186 192 195 195 203 201 201 202 201 212 219 215 227 237 228 222 221 225 231 230 234 238 230 228 231 227 224 220 223 233 239 251 270 278 266 271 271 284 284 282 293 316 71 101 141 97 64 105 114 76 353 1 47 71 162 161 167 146 130
334 318 158 154 158 163 161 160 161 158 155 156 153 150 184 240 228 211 216 223 128 150 164 164 171 175 181 193 188 180 190 188 189 201 199 200 204 205 213 219 221 233 247 250 243 227 224 226 218 217 221 218 221 224 224 237 242 221 222 231 244 253 255 271 278 268 284 299 306 310 333 69 124 147 135 104 121 121 106 111 63 39 33 38 117 167 158 141
331 248 190 171 167 167 162 160 161 158 157 157 151 168 227 215 212 230 219 177 129 148 157 162 171 172 186 200 184 182 199 188 183 198 199 202 208 210 212 214 220 228 235 246 252 242 255 254 206 197 203 211 220 226 232 254 264 230 214 225 239 244 249 261 259 260 285 296 310 350 59 40 97 130 157 140 126 132 126 116 115 8 12 28 42 117 154 176
333 199 189 184 176 171 167 163 161 161 160 154 153 230 229 210 217 250 200 158 164 164 157 163 173 173 191 199 178 182 208 204 191 196 201 209 214 216 217 215 214 218 225 236 244 246 273 305 152 171 193 206 219 225 222 233 244 241 240 238 236 239 259 261 250 251 276 280 302 106 116 136 132 125 160 152 124 127 131 65 36 27 21 35 39 18 139 179
12 159 159 175 186 174 170 168 162 163 161 156 190 242 238 258 270 260 241 176 169 163 163 167 175 179 187 191 177 180 200 201 193 198 199 208 220 219 217 219 213 212 221 238 260 274 290 144 150 175 200 198 211 214 207 216 225 232 258 285 254 249 281 284 273 286 267 277 334 297 158 176 183 122 105 120 112 113 107 75 89 70 25 27 40 40 97 178
48 138 112 99 187 178 171 170 164 163 163 163 210 231 240 270 254 229 237 172 152 163 177 175 175 183 193 191 176 179 197 192 179 196 200 199 210 208 211 219 211 212 222 235 254 273 287 262 190 183 200 196 201 204 207 217 222 229 262 331 271 258 308 321 260 276 254 188 311 260 135 98 231 118 60 99 113 111 99 95 130 104 59 7 21 64 65 2
84 108 64 20 232 179 170 166 164 167 172 184 244 248 240 235 225 230 221 183 163 173 185 176 168 189 214 198 164 170 199 197 171 193 208 197 190 192 218 224 205 207 220 219 231 253 272 267 220 181 194 196 193 197 210 218 220 238 263 286 262 256 295 280 262 283 281 184 270 236 97 29 325 70 119 134 121 91 87 85 80 88 111 338 24 40 357 355
99 107 13 343 97 166 164 164 169 175 182 212 265 256 236 228 222 227 214 197 181 185 203 191 166 190 217 193 158 166 196 204 176 184 198 196 208 209 207 214 205 204 210 210 223 248 250 250 270 214 181 184 197 201 211 216 208 213 226 235 239 230 231 243 254 267 249 114 247 273 77 104 132 127 139 121 90 75 83 73 58 72 76 64 78 87 309 328
94 104 318 327 129 162 166 166 176 185 194 239 262 252 263 249 215 202 201 200 202 214 251 274 177 185 197 184 167 165 186 209 189 177 190 203 226 235 172 190 209 197 197 208 218 233 232 222 260 232 180 184 199 200 211 223 215 208 214 221 228 228 231 234 244 271 295 96 211 233 153 122 169 179 155 98 82 81 80 77 75 80 78 76 101 180 322 357
78 91 291 310 194 178 176 176 187 203 226 252 251 261 278 247 211 183 185 192 216 216 230 259 182 179 178 180 178 162 172 206 190 178 211 203 206 207 152 178 208 190 190 209 211 222 247 246 242 225 202 201 185 171 199 218 225 227 227 230 241 250 248 249 242 255 333 3 300 237 174 152 110 142 122 92 90 93 93 93 91 115 125 100 20 5 47 62
82 69 301 294 244 195 180 194 228 235 246 257 256 265 268 216 199 184 178 183 192 185 193 211 161 165 166 171 178 169 169 190 176 184 222 186 148 124 139 173 194 184 187 204 205 208 231 264 246 230 250 256 194 184 224 234 239 238 228 234 247 252 257 273 264 201 160 162 198 219 211 205 60 116 129 120 102 86 78 78 68 139 182 34 7 104 105 118
104 353 316 308 241 196 174 186 242 241 244 262 263 252 238 208 189 170 171 177 179 175 187 190 145 153 162 164 172 171 167 183 179 189 224 160 112 101 143 169 182 183 192 199 197 195 198 219 239 231 258 259 170 192 255 256 247 241 227 237 251 257 257 263 266 254 212 183 171 161 218 243 244 177 178 175 136 93 55 50 55 49 297 339 62 130 134 119
120 84 302 303 298 201 179 194 247 250 260 287 272 238 216 200 195 182 167 169 174 169 168 171 163 157 154 155 167 165 160 192 199 186 209 170 97 99 143 167 176 180 195 192 174 175 188 199 220 220 248 248 191 230 247 238 253 257 252 247 248 258 253 239 252 264 239 178 164 158 183 205 207 206 179 150 153 137 91 72 61 317 285 313 13 28 84 47
143 136 208 282 331 230 186 222 236 244 285 275 253 224 198 181 178 171 161 164 168 170 175 176 171 164 152 154 163 166 165 180 172 167 191 177 115 118 149 163 173 169 175 174 150 162 191 205 224 224 236 249 241 241 230 229 246 249 253 253 242 247 250 240 251 258 236 169 201 180 174 190 195 191 166 144 157 150 117 106 264 297 329 342 335 332 10 23
158 153 190 235 331 326 315 263 225 234 290 256 217 184 169 160 160 155 158 171 167 166 177 168 161 156 157 163 165 172 176 161 140 158 169 143 135 148 159 168 200 225 208 195 186 207 215 221 233 230 236 248 246 231 223 230 241 241 243 246 243 246 250 250 252 253 284 308 254 170 182 193 179 166 157 139 108 108 125 165 268 322 1 356 330 336 15 26
171 161 224 223 221 261 337 239 206 240 264 209 151 174 173 153 158 144 119 155 163 165 155 147 153 159 155 164 170 169 177 160 144 157 155 139 153 165 166 176 206 235 215 193 190 224 248 235 231 234 236 244 250 247 240 238 241 244 243 241 242 243 247 256 260 255 263 271 226 173 196 177 146 139 142 124 90 78 161 255 283 309 339 6 6 5 17 25
200 218 245 243 242 258 290 192 160 215 235 185 125 188 175 135 146 128 102 157 149 105 141 146 139 138 133 132 148 158 174 162 144 152 162 145 147 148 159 177 184 177 190 192 186 217 257 249 244 257 251 244 251 256 251 241 238 239 241 245 248 245 245 256 261 264 286 292 262 208 160 139 144 152 144 142 147 122 62 295 278 279 323 11 14 10 8 8
209 214 205 215 233 240 266 299 119 206 238 195 106 143 151 151 159 100 93 154 138 105 143 154 111 109 119 106 108 119 119 121 138 155 189 120 131 142 167 180 169 160 184 202 191 207 243 250 245 266 269 258 256 261 256 247 248 252 250 248 252 256 256 262 273 283 306 320 321 5 95 116 166 202 192 178 181 148 104 156 260 285 336 357 3 7 4 357
208 209 203 214 217 188 202 249 232 236 245 159 132 134 136 145 159 96 89 115 119 95 118 131 100 93 110 108 92 88 70 53 102 146 227 50 137 157 161 162 169 170 180 197 205 217 243 261 256 262 273 269 263 265 263 255 251 252 254 256 259 262 256 251 288 312 306 322 349 2 38 89 139 201 195 178 189 179 174 214 253 330 340 335 345 359 2 358
208 212 214 226 220 183 187 241 234 231 216 142 138 189 86 105 127 147 107 105 93 76 79 97 95 79 104 110 63 60 63 21 40 112 299 355 147 189 192 181 213 224 181 195 214 216 235 267 284 290 292 295 290 276 270 270 259 250 253 262 262 264 263 258 26 37 325 305 330 328 318 103 125 147 137 158 208 218 211 217 326 18 338 319 347 4 357 345
Height
3172 3171 3170 3170 3169 3169 3168 3167 3167 3166 3166 3166 3165 3165 3165 3165 3165 3166 3166 3166 3166 3166 3166 3166 3167 3167 3167 3167 3167 3167 3167 3167 3167 3166 3166 3167 3168 3168 3169 3169 3170 3170 3171 3171 3170 3170 3170 3170 3171 3171 3171 3171 3171 3171 3171 3170 3169 3168 3167 3167 3167 3166 3164 3164 3162 3161 3160 3159 3158 3158 3158 3159 3161 3162 3162 3162 3163 3165 3165 3166 3168 3169 3171 3172 3174 3175 3177 3178
3171 3171 3170 3169 3169 3168 3168 3167 3166 3166 3165 3165 3165 3165 3165 3165 3165 3165 3165 3165 3165 3165 3165 3166 3166 3166 3167 3167 3167 3167 3167 3166 3166 3166 3166 3167 3168 3168 3169 3169 3170 3171 3171 3171 3171 3171 3171 3171 3172 3172 3172 3172 3172 3171 3171 3171 3170 3170 3169 3170 3170 3168 3166 3165 3164 3163 3162 3161 3160 3160 3159 3160 3162 3163 3164 3164 3165 3165 3166 3167 3168 3170 3171 3172 3174 3176 3177 3179
3171 3170 3170 3169 3168 3168 3167 3166 3166 3165 3165 3164 3164 3164 3164 3164 3164 3164 3164 3164 3164 3164 3165 3165 3165 3166 3166 3166 3166 3167 3166 3166 3166 3166 3166 3167 3167 3168 3168 3169 3170 3171 3171 3171 3171 3171 3171 3172 3173 3173 3173 3173 3172 3172 3172 3172 3171 3171 3171 3172 3171 3170 3169 3167 3165 3164 3163 3163 3162 3161 3160 3161 3163 3165 3165 3166 3166 3166 3167 3168 3169 3171 3172 3173 3174 3176 3178 3179
3170 3170 3169 3168 3168 3167 3166 3166 3165 3165 3164 3164 3163 3163 3163 3163 3163 3163 3163 3164 3164 3164 3164 3164 3165 3165 3166 3166 3166 3166 3167 3167 3165 3165 3166 3166 3167 3167 3168 3169 3170 3171 3171 3171 3171 3171 3171 3172 3174 3174 3174 3174 3173 3173 3173 3173 3173 3172 3172 3173 3173 3172 3170 3168 3167 3166 3165 3164 3163 3163 3162 3163 3164 3165 3166 3166 3166 3167 3168 3169 3169 3171 3173 3174 3175 3177 3178 3180
3169 3169 3168 3168 3167 3166 3166 3165 3165 3164 3164 3163 3163 3162 3162 3162 3162 3162 3162 3163 3163 3163 3163 3164 3164 3165 3165 3165 3166 3166 3167 3167 3164 3165 3166 3166 3167 3167 3167 3169 3170 3171 3171 3171 3171 3171 3171 3172 3174 3175 3175 3174 3174 3174 3174 3174 3174 3173 3173 3173 3173 3172 3171 3169 3168 3167 3166 3165 3165 3164 3164 3164 3164 3165 3167 3167 3167 3168 3168 3169 3170 3172 3174 3175 3176 3177 3179 3181
3169 3168 3167 3167 3166 3166 3165 3165 3164 3163 3163 3162 3162 3162 3161 3161 3161 3161 3162 3162 3162 3163 3163 3163 3164 3164 3165 3165 3166 3166 3167 3166 3164 3164 3165 3165 3166 3167 3168 3169 3170 3170 3171 3171 3171 3171 3172 3173 3174 3175 3175 3175 3175 3175 3175 3175 3175 3174 3173 3174 3174 3172 3172 3170 3169 3168 3167 3167 3166 3166 3165 3165 3165 3166 3168 3169 3170 3170 3170 3171 3171 3173 3175 3176 3178 3178 3180 3181
3168 3167 3167 3166 3165 3165 3164 3164 3163 3163 3162 3162 3161 3161 3161 3160 3160 3161 3161 3161 3161 3162 3162 3163 3163 3164 3164 3165 3166 3166 3166 3165 3164 3164 3165 3165 3166 3167 3168 3169 3170 3170 3171 3171 3171 3172 3172 3174 3175 3175 3175 3175 3175 3175 3176 3176 3175 3175 3174 3175 3174 3173 3172 3171 3170 3168 3168 3168 3167 3167 3167 3166 3166 3166 3168 3170 3171 3171 3171 3172 3172 3173 3175 3177 3178 3179 3180 3182
3167 3166 3166 3165 3165 3164 3163 3163 3162 3162 3161 3161 3160 3160 3160 3159 3159 3160 3160 3160 3161 3161 3162 3162 3163 3163 3164 3165 3165 3166 3167 3164 3164 3164 3164 3165 3166 3167 3168 3169 3170 3170 3170 3171 3172 3173 3173 3174 3175 3175 3175 3175 3175 3176 3176 3176 3175 3175 3176 3175 3175 3174 3173 3172 3170 3169 3169 3169 3168 3168 3168 3168 3167 3167 3168 3170 3170 3171 3171 3172 3173 3174 3175 3177 3178 3179 3181 3183
3166 3165 3165 3164 3164 3163 3163 3162 3161 3161 3160 3160 3160 3159 3159 3159 3159 3159 3159 3160 3160 3160 3161 3161 3162 3163 3164 3164 3165 3167 3166 3163 3164 3165 3165 3166 3166 3167 3168 3169 3170 3170 3170 3171 3172 3174 3174 3174 3175 3175 3175 3175 3176 3177 3177 3177 3176 3176 3176 3176 3175 3174 3173 3172 3171 3170 3169 3169 3169 3169 3169 3169 3168 3167 3168 3170 3170 3170 3171 3172 3173 3174 3175 3176 3178 3180 3181 3183
3165 3164 3164 3163 3163 3162 3161 3161 3160 3160 3160 3159 3159 3159 3158 3158 3158 3158 3158 3159 3159 3160 3160 3161 3162 3162 3163 3164 3165 3166 3164 3162 3163 3165 3165 3165 3166 3167 3168 3169 3170 3170 3171 3171 3172 3173 3173 3174 3175 3175 3175 3175 3177 3177 3177 3178 3177 3176 3176 3176 3176 3175 3174 3173 3171 3170 3169 3170 3170 3169 3170 3170 3170 3169 3168 3169 3170 3171 3171 3172 3173 3174 3175 3177 3178 3180 3182 3183
3163 3163 3162 3162 3161 3161 3160 3160 3159 3159 3159 3158 3158 3158 3157 3157 3157 3157 3158 3158 3159 3159 3159 3160 3161 3162 3163 3164 3164 3164 3162 3162 3162 3164 3165 3165 3166 3167 3168 3169 3169 3170 3171 3172 3174 3174 3174 3174 3174 3174 3175 3176 3177 3177 3177 3177 3177 3177 3177 3177 3176 3175 3175 3173 3172 3170 3170 3170 3170 3170 3170 3170 3170 3170 3169 3169 3170 3171 3172 3173 3173 3174 3175 3177 3178 3180 3182 3184
3162 3162 3161 3161 3160 3160 3159 3159 3158 3158 3158 3157 3157 3157 3157 3156 3156 3157 3157 3157 3158 3158 3159 3160 3160 3161 3162 3163 3164 3161 3160 3162 3162 3163 3164 3165 3166 3167 3168 3169 3169 3171 3171 3173 3175 3175 3175 3174 3174 3174 3175 3176 3177 3177 3177 3177 3177 3177 3177 3178 3177 3176 3176 3174 3173 3171 3171 3171 3170 3170 3171 3171 3171 3171 3170 3171 3171 3172 3173 3174 3174 3174 3176 3177 3178 3180 3182 3184
3160 3160 3160 3159 3159 3158 3158 3158 3157 3157 3156 3156 3156 3156 3156 3156 3156 3156 3156 3157 3157 3158 3158 3159 3160 3161 3161 3163 3161 3158 3159 3162 3162 3163 3164 3165 3166 3167 3168 3169 3170 3171 3172 3175 3177 3175 3175 3175 3174 3175 3175 3175 3176 3176 3176 3177 3177 3177 3178 3178 3177 3177 3177 3175 3173 3172 3171 3171 3171 3171 3171 3171 3172 3172 3171 3171 3172 3172 3173 3174 3174 3175 3176 3177 3178 3180 3181 3184
3159 3158 3158 3158 3157 3157 3157 3156 3156 3155 3155 3155 3155 3155 3155 3155 3155 3155 3156 3156 3157 3157 3158 3158 3159 3160 3161 3160 3158 3157 3161 3163 3162 3163 3164 3165 3166 3167 3168 3169 3170 3171 3171 3173 3175 3175 3174 3174 3174 3175 3175 3175 3176 3176 3176 3177 3177 3177 3178 3178 3177 3177 3177 3176 3174 3173 3172 3172 3171 3172 3172 3172 3172 3172 3172 3172 3172 3172 3172 3173 3174 3175 3175 3177 3178 3180 3181 3183
3157 3157 3156 3156 3156 3156 3155 3155 3154 3154 3154 3154 3154 3154 3154 3154 3154 3155 3155 3156 3156 3157 3157 3158 3159 3159 3160 3160 3158 3159 3162 3162 3162 3163 3163 3165 3165 3167 3168 3168 3170 3170 3170 3171 3173 3174 3173 3173 3174 3175 3175 3176 3177 3177 3177 3177 3177 3177 3177 3177 3176 3176 3176 3176 3174 3173 3172 3172 3172 3172 3173 3173 3172 3172 3172 3172 3173 3173 3173 3173 3173 3174 3175 3176 3178 3179 3181 3183
3155 3155 3155 3154 3154 3154 3154 3153 3153 3152 3152 3152 3153 3153 3153 3154 3154 3154 3155 3155 3156 3156 3157 3157 3158 3159 3160 3159 3158 3160 3161 3161 3162 3162 3163 3164 3165 3167 3167 3168 3169 3170 3170 3172 3172 3173 3173 3174 3174 3175 3175 3176 3177 3178 3177 3177 3176 3176 3176 3176 3176 3176 3176 3174 3173 3173 3173 3173 3173 3173 3173 3173 3172 3172 3172 3172 3172 3172 3173 3173 3173 3174 3175 3176 3177 3179 3181 3182
3153 3153 3153 3153 3153 3152 3152 3152 3151 3151 3151 3151 3152 3152 3152 3153 3153 3154 3154 3155 3155 3156 3156 3157 3158 3159 3159 3158 3158 3160 3161 3160 3160 3161 3163 3164 3166 3167 3167 3168 3169 3170 3171 3172 3172 3173 3173 3174 3174 3175 3175 3176 3177 3178 3177 3176 3175 3175 3175 3176 3176 3176 3176 3173 3172 3173 3172 3172 3172 3172 3172 3173 3172 3172 3171 3170 3171 3172 3172 3173 3173 3174 3175 3175 3176 3177 3179 3181
3151 3151 3151 3151 3151 3151 3150 3150 3149 3149 3149 3150 3150 3151 3152 3152 3153 3154 3154 3155 3155 3156 3157 3157 3158 3159 3159 3157 3159 3160 3160 3159 3160 3162 3163 3164 3166 3166 3167 3168 3169 3170 3171 3172 3173 3173 3174 3174 3175 3176 3176 3176 3176 3177 3176 3175 3174 3175 3175 3175 3174 3174 3173 3173 3173 3173 3171 3171 3171 3170 3171 3172 3172 3171 3170 3170 3170 3171 3172 3172 3172 3173 3174 3175 3176 3177 3178 3180
3149 3149 3149 3149 3149 3149 3149 3148 3148 3147 3148 3149 3149 3150 3151 3152 3153 3154 3154 3154 3155 3155 3156 3157 3158 3159 3158 3158 3159 3160 3159 3159 3161 3162 3163 3163 3165 3166 3167 3168 3169 3170 3172 3173 3173 3174 3174 3176 3176 3176 3176 3175 3175 3175 3175 3174 3174 3174 3174 3174 3174 3173 3172 3172 3172 3172 3172 3172 3171 3171 3171 3171 3171 3170 3170 3170 3170 3170 3171 3172 3172 3173 3174 3174 3175 3176 3177 3179
3148 3147 3147 3147 3147 3147 3147 3147 3146 3146 3147 3148 3148 3149 3150 3152 3153 3154 3153 3154 3155 3155 3156 3157 3158 3159 3160 3160 3160 3159 3158 3159 3161 3161 3162 3164 3165 3166 3167 3168 3170 3171 3172 3174 3174 3174 3175 3176 3175 3175 3174 3174 3174 3174 3174 3174 3174 3174 3174 3174 3173 3172 3171 3171 3171 3171 3172 3172 3171 3171 3171 3170 3170 3170 3171 3170 3170 3170 3171 3171 3171 3172 3173 3173 3174 3176 3177 3179
3146 3145 3145 3145 3145 3145 3145 3145 3145 3145 3146 3146 3147 3148 3149 3150 3152 3152 3152 3153 3155 3155 3155 3157 3158 3160 3161 3160 3159 3158 3159 3160 3161 3161 3162 3164 3165 3167 3168 3169 3171 3171 3172 3174 3175 3175 3175 3175 3174 3174 3173 3173 3173 3173 3173 3173 3174 3174 3174 3173 3172 3171 3170 3170 3170 3170 3170 3171 3171 3170 3170 3169 3168 3169 3171 3171 3170 3169 3170 3171 3170 3170 3172 3172 3173 3175 3177 3179
3144 3143 3143 3143 3143 3143 3143 3143 3143 3144 3144 3145 3146 3147 3148 3149 3150 3151 3152 3153 3154 3154 3155 3156 3158 3159 3159 3159 3158 3158 3159 3160 3162 3162 3162 3164 3166 3168 3169 3169 3171 3172 3173 3173 3174 3175 3175 3173 3173 3173 3173 3173 3173 3173 3173 3174 3174 3174 3173 3173 3171 3170 3169 3168 3168 3169 3169 3170 3170 3169 3169 3169 3168 3168 3169 3170 3170 3169 3169 3170 3170 3170 3171 3172 3173 3175 3176 3178
3142 3141 3141 3141 3141 3141 3141 3141 3142 3142 3143 3144 3145 3146 3147 3148 3150 3151 3152 3152 3153 3154 3154 3155 3157 3158 3158 3158 3158 3158 3160 3162 3163 3162 3162 3164 3166 3168 3169 3170 3171 3172 3173 3174 3173 3174 3173 3171 3171 3172 3172 3172 3172 3173 3174 3174 3174 3173 3173 3171 3170 3169 3168 3166 3165 3167 3169 3168 3169 3169 3169 3168 3168 3167 3168 3169 3170 3170 3169 3169 3170 3169 3170 3172 3173 3174 3175 3177
3140 3139 3139 3139 3139 3139 3140 3140 3140 3141 3142 3143 3144 3145 3147 3148 3149 3151 3152 3152 3154 3154 3154 3155 3155 3157 3158 3158 3158 3158 3160 3162 3163 3162 3161 3163 3166 3167 3169 3170 3171 3172 3172 3173 3173 3172 3170 3170 3171 3171 3171 3171 3172 3173 3173 3173 3172 3172 3171 3170 3169 3168 3166 3165 3165 3166 3167 3166 3167 3169 3169 3168 3168 3168 3168 3167 3168 3169 3170 3169 3169 3169 3169 3171 3172 3172 3174 3176
3138 3137 3137 3137 3138 3138 3138 3139 3139 3140 3141 3142 3143 3145 3147 3148 3149 3151 3152 3153 3154 3154 3154 3155 3155 3156 3157 3157 3157 3158 3160 3162 3164 3163 3161 3162 3165 3167 3169 3170 3170 3171 3172 3172 3173 3171 3170 3170 3172 3171 3171 3172 3172 3172 3172 3172 3171 3170 3169 3168 3168 3167 3166 3167 3167 3167 3166 3164 3166 3167 3167 3168 3169 3168 3168 3168 3166 3167 3169 3168 3168 3169 3170 3169 3170 3171 3173 3175
3135 3135 3135 3136 3136 3136 3137 3137 3138 3139 3140 3142 3143 3144 3146 3148 3150 3151 3152 3153 3152 3152 3153 3154 3155 3155 3156 3156 3156 3158 3160 3162 3163 3162 3161 3162 3164 3167 3169 3170 3169 3170 3171 3172 3172 3170 3169 3170 3171 3171 3171 3172 3172 3171 3171 3172 3171 3169 3167 3166 3167 3167 3167 3168 3168 3166 3164 3163 3164 3165 3165 3166 3168 3167 3168 3169 3167 3166 3167 3167 3167 3170 3170 3168 3169 3171 3172 3174
3134 3133 3133 3134 3134 3135 3135 3136 3137 3138 3140 3141 3142 3144 3146 3148 3150 3151 3153 3152 3149 3150 3152 3153 3155 3154 3155 3156 3156 3159 3160 3160 3162 3162 3161 3162 3164 3166 3167 3169 3169 3169 3170 3171 3170 3169 3169 3169 3170 3170 3171 3171 3171 3170 3170 3171 3170 3167 3167 3167 3167 3166 3167 3168 3167 3165 3164 3163 3163 3163 3163 3164 3166 3167 3168 3169 3169 3168 3167 3167 3167 3169 3170 3170 3169 3169 3170 3173
3132 3132 3132 3132 3133 3133 3134 3135 3136 3137 3138 3140 3141 3144 3146 3148 3149 3151 3153 3150 3146 3148 3151 3151 3153 3154 3155 3156 3156 3159 3160 3160 3161 3160 3160 3162 3163 3166 3166 3167 3168 3169 3169 3170 3167 3167 3168 3169 3169 3169 3170 3169 3170 3169 3169 3170 3169 3167 3167 3168 3167 3167 3167 3167 3166 3164 3164 3163 3161 3161 3161 3162 3165 3167 3168 3168 3168 3167 3166 3167 3167 3167 3167 3168 3168 3168 3169 3171
3131 3131 3131 3131 3131 3132 3133 3134 3136 3137 3139 3140 3142 3143 3145 3148 3149 3151 3153 3149 3145 3147 3150 3150 3151 3153 3155 3155 3156 3159 3160 3160 3161 3159 3160 3162 3162 3164 3166 3166 3167 3168 3169 3169 3166 3165 3167 3167 3168 3169 3169 3169 3169 3169 3168 3169 3168 3168 3167 3168 3168 3168 3167 3166 3165 3164 3163 3161 3160 3160 3159 3160 3164 3167 3168 3167 3167 3167 3166 3166 3167 3166 3166 3167 3167 3167 3168 3169
3131 3130 3130 3130 3131 3132 3133 3134 3135 3137 3139 3141 3142 3144 3146 3147 3149 3151 3151 3147 3145 3146 3148 3149 3151 3153 3154 3155 3157 3159 3160 3160 3160 3160 3161 3162 3163 3163 3164 3165 3166 3167 3168 3167 3166 3164 3165 3166 3166 3166 3167 3168 3168 3168 3168 3168 3168 3168 3168 3168 3167 3166 3165 3164 3163 3162 3162 3160 3158 3158 3157 3158 3162 3166 3166 3166 3167 3167 3166 3165 3166 3166 3167 3166 3166 3166 3166 3167
3131 3130 3130 3130 3131 3132 3132 3133 3135 3137 3139 3140 3142 3144 3146 3148 3150 3150 3146 3144 3145 3145 3146 3148 3151 3152 3154 3155 3156 3158 3159 3160 3160 3160 3161 3162 3163 3163 3164 3165 3166 3166 3166 3166 3165 3164 3165 3166 3165 3165 3166 3167 3167 3167 3167 3167 3168 3168 3168 3168 3166 3163 3162 3162 3161 3161 3161 3158 3156 3156 3157 3159 3162 3166 3165 3164 3166 3166 3165 3165 3165 3165 3166 3166 3166 3166 3166 3166
3132 3131 3131 3131 3131 3132 3133 3134 3135 3137 3139 3140 3142 3144 3146 3149 3150 3148 3144 3143 3143 3144 3146 3148 3150 3151 3153 3155 3156 3156 3158 3159 3159 3160 3161 3161 3162 3163 3163 3164 3165 3164 3164 3163 3163 3163 3164 3164 3165 3165 3165 3165 3166 3167 3167 3167 3168 3169 3168 3168 3166 3160 3159 3161 3160 3160 3159 3156 3156 3156 3157 3160 3163 3165 3164 3163 3165 3165 3164 3165 3165 3165 3166 3166 3166 3166 3166 3166
3132 3132 3131 3131 3132 3133 3134 3135 3136 3138 3139 3141 3143 3144 3147 3149 3147 3144 3143 3142 3141 3142 3145 3147 3149 3151 3153 3154 3155 3156 3157 3158 3158 3159 3160 3161 3161 3162 3162 3163 3163 3163 3161 3160 3161 3161 3161 3161 3162 3164 3163 3163 3165 3165 3165 3165 3166 3167 3167 3167 3166 3161 3160 3163 3162 3160 3159 3156 3156 3156 3158 3161 3164 3164 3164 3163 3163 3165 3166 3166 3165 3165 3165 3165 3166 3166 3166 3167
3133 3132 3132 3132 3133 3133 3134 3136 3137 3138 3139 3141 3143 3145 3148 3148 3144 3142 3142 3141 3141 3142 3144 3147 3149 3151 3152 3152 3153 3155 3156 3157 3157 3158 3159 3160 3160 3161 3161 3162 3162 3162 3161 3160 3159 3157 3156 3155 3157 3160 3161 3161 3162 3162 3161 3162 3164 3164 3164 3165 3164 3160 3160 3161 3158 3159 3159 3158 3157 3157 3159 3162 3164 3165 3165 3164 3164 3166 3167 3168 3167 3166 3167 3166 3166 3167 3167 3167
3133 3133 3133 3133 3133 3134 3135 3136 3137 3138 3140 3142 3143 3146 3147 3146 3144 3142 3141 3141 3142 3143 3145 3147 3149 3150 3151 3151 3152 3154 3155 3155 3156 3158 3158 3159 3159 3159 3159 3160 3160 3161 3160 3159 3157 3155 3152 3149 3150 3155 3159 3160 3160 3160 3161 3163 3163 3162 3162 3164 3161 3157 3158 3157 3155 3157 3159 3159 3159 3160 3162 3164 3164 3165 3167 3166 3165 3166 3167 3168 3168 3167 3167 3167 3167 3167 3168 3168
3133 3133 3133 3134 3134 3135 3136 3136 3137 3139 3140 3142 3144 3146 3145 3144 3143 3142 3141 3141 3143 3144 3145 3147 3148 3150 3150 3149 3151 3154 3154 3153 3155 3157 3157 3157 3157 3157 3157 3158 3159 3159 3159 3158 3157 3154 3151 3149 3150 3154 3158 3159 3159 3161 3162 3163 3162 3162 3161 3160 3157 3156 3156 3155 3153 3156 3159 3159 3160 3161 3164 3166 3164 3165 3168 3166 3166 3168 3169 3168 3168 3167 3167 3167 3168 3168 3169 3169
3133 3133 3134 3134 3135 3136 3136 3137 3138 3140 3141 3142 3143 3145 3145 3143 3143 3143 3142 3141 3143 3144 3145 3146 3147 3148 3149 3148 3150 3153 3154 3153 3154 3155 3155 3156 3155 3155 3156 3157 3157 3158 3158 3158 3157 3155 3154 3153 3153 3155 3157 3158 3159 3161 3162 3162 3162 3162 3160 3158 3157 3157 3157 3155 3155 3157 3159 3161 3163 3163 3164 3165 3164 3165 3167 3166 3166 3169 3170 3169 3169 3168 3168 3168 3169 3169 3169 3169
3134 3134 3134 3135 3136 3136 3137 3138 3139 3141 3142 3143 3143 3144 3144 3144 3143 3143 3143 3142 3143 3145 3145 3145 3146 3147 3148 3147 3148 3152 3153 3152 3153 3154 3153 3154 3153 3153 3155 3156 3156 3157 3158 3159 3158 3157 3156 3155 3153 3155 3157 3157 3159 3160 3161 3161 3161 3160 3159 3159 3159 3159 3158 3158 3159 3159 3160 3163 3165 3163 3164 3166 3166 3166 3167 3168 3169 3169 3170 3170 3170 3170 3170 3169 3169 3168 3168 3169
3135 3135 3136 3136 3137 3137 3138 3139 3140 3142 3142 3143 3144 3145 3144 3144 3143 3143 3144 3143 3144 3144 3144 3144 3145 3146 3146 3145 3146 3150 3151 3150 3152 3153 3152 3153 3152 3152 3154 3155 3155 3156 3158 3159 3159 3158 3157 3155 3152 3154 3157 3158 3158 3159 3159 3160 3161 3161 3161 3161 3160 3160 3160 3161 3161 3159 3159 3163 3164 3162 3164 3169 3168 3167 3168 3169 3170 3170 3170 3170 3169 3170 3171 3170 3170 3169 3168 3170
3136 3136 3138 3139 3139 3139 3139 3140 3141 3142 3143 3143 3145 3145 3143 3144 3144 3144 3144 3143 3144 3144 3142 3143 3145 3145 3145 3145 3145 3148 3150 3149 3150 3152 3153 3153 3153 3151 3153 3154 3154 3156 3157 3158 3159 3158 3157 3156 3154 3153 3156 3158 3157 3157 3158 3158 3159 3161 3162 3162 3160 3160 3161 3161 3161 3160 3160 3163 3164 3163 3167 3170 3168 3168 3169 3169 3171 3172 3171 3171 3169 3169 3170 3171 3172 3172 3170 3171
3137 3138 3140 3141 3141 3141 3141 3142 3143 3143 3143 3144 3146 3144 3143 3144 3144 3144 3144 3143 3143 3144 3142 3142 3144 3145 3145 3145 3145 3147 3150 3149 3149 3151 3152 3152 3152 3150 3151 3154 3155 3155 3157 3158 3159 3158 3157 3157 3156 3153 3153 3154 3154 3156 3158 3157 3157 3158 3159 3158 3158 3157 3158 3157 3158 3161 3162 3164 3165 3164 3168 3170 3168 3168 3169 3169 3171 3172 3171 3172 3173 3171 3172 3173 3173 3173 3172 3172
3139 3140 3142 3142 3143 3143 3143 3144 3144 3145 3145 3146 3146 3144 3143 3144 3144 3143 3144 3144 3143 3144 3144 3143 3144 3145 3145 3145 3146 3147 3149 3149 3149 3150 3151 3150 3150 3150 3150 3153 3155 3155 3157 3158 3158 3159 3158 3156 3156 3154 3152 3151 3151 3154 3156 3156 3156 3156 3156 3156 3156 3156 3156 3155 3157 3161 3163 3165 3165 3165 3167 3169 3168 3168 3169 3170 3171 3171 3171 3174 3174 3172 3173 3174 3173 3173 3173 3173
3141 3141 3142 3143 3143 3143 3144 3145 3146 3146 3146 3146 3146 3144 3144 3144 3144 3144 3145 3145 3145 3145 3145 3145 3144 3145 3146 3147 3147 3148 3149 3150 3150 3151 3150 3149 3150 3150 3151 3153 3154 3155 3156 3157 3158 3158 3159 3158 3157 3156 3154 3151 3152 3154 3154 3155 3155 3155 3156 3157 3157 3156 3155 3156 3157 3160 3162 3164 3165 3166 3168 3169 3169 3169 3169 3170 3171 3171 3172 3174 3173 3171 3172 3173 3173 3173 3174 3174
3142 3142 3142 3143 3143 3143 3144 3146 3147 3147 3146 3145 3145 3144 3144 3145 3145 3145 3145 3145 3146 3146 3146 3146 3146 3146 3146 3147 3148 3149 3150 3150 3150 3150 3150 3150 3150 3151 3152 3153 3154 3155 3155 3156 3157 3157 3158 3159 3159 3159 3156 3152 3153 3155 3156 3156 3156 3154 3156 3157 3157 3157 3157 3159 3159 3159 3161 3162 3164 3166 3168 3168 3169 3170 3170 3170 3171 3172 3174 3174 3172 3170 3171 3172 3172 3173 3173 3173
3143 3143 3144 3144 3144 3143 3144 3145 3147 3147 3147 3145 3144 3143 3144 3144 3144 3144 3145 3146 3146 3146 3147 3147 3147 3147 3147 3148 3149 3149 3150 3151 3150 3150 3151 3150 3150 3152 3154 3154 3154 3155 3155 3155 3156 3156 3158 3159 3160 3159 3158 3155 3155 3157 3158 3158 3158 3156 3156 3158 3158 3158 3159 3159 3159 3159 3160 3162 3162 3164 3166 3167 3169 3171 3171 3171 3172 3173 3175 3174 3171 3170 3170 3172 3172 3173 3174 3174
3144 3144 3145 3145 3143 3143 3143 3144 3146 3147 3148 3146 3145 3144 3144 3144 3144 3144 3145 3146 3146 3146 3147 3147 3147 3148 3148 3148 3149 3150 3150 3150 3150 3150 3151 3150 3151 3153 3154 3154 3154 3154 3154 3154 3156 3157 3158 3159 3159 3159 3160 3159 3159 3159 3159 3159 3159 3159 3158 3158 3159 3159 3159 3159 3159 3159 3160 3161 3161 3162 3164 3167 3168 3170 3171 3171 3172 3173 3174 3172 3170 3171 3172 3172 3173 3173 3173 3173
3144 3144 3145 3145 3145 3144 3144 3145 3146 3148 3148 3146 3144 3143 3144 3144 3145 3145 3144 3145 3146 3146 3147 3147 3147 3148 3148 3149 3150 3150 3150 3150 3151 3151 3151 3151 3152 3154 3154 3155 3154 3153 3154 3156 3157 3158 3159 3159 3159 3159 3160 3160 3159 3159 3159 3159 3159 3159 3159 3159 3159 3159 3159 3159 3159 3159 3159 3160 3161 3162 3165 3165 3167 3169 3171 3171 3172 3173 3172 3171 3171 3173 3173 3173 3174 3173 3172 3172
3144 3145 3146 3146 3146 3145 3145 3146 3148 3148 3148 3147 3144 3142 3144 3145 3145 3145 3145 3145 3146 3146 3146 3146 3147 3148 3148 3149 3150 3150 3150 3150 3151 3152 3152 3152 3153 3153 3154 3155 3155 3154 3155 3157 3158 3158 3158 3159 3159 3159 3159 3159 3158 3158 3158 3158 3158 3158 3158 3158 3158 3158 3158 3158 3159 3159 3160 3160 3161 3163 3165 3165 3167 3169 3169 3170 3173 3173 3171 3171 3173 3173 3173 3173 3173 3173 3173 3174
3144 3145 3146 3147 3146 3146 3147 3147 3149 3149 3149 3148 3145 3143 3144 3146 3146 3145 3145 3145 3146 3146 3146 3147 3148 3148 3149 3149 3150 3151 3150 3150 3151 3152 3152 3152 3152 3153 3154 3155 3155 3156 3157 3157 3159 3159 3158 3158 3158 3158 3158 3158 3157 3157 3156 3156 3156 3156 3157 3157 3157 3157 3158 3158 3159 3159 3160 3160 3161 3162 3163 3165 3167 3169 3168 3170 3173 3172 3172 3172 3171 3171 3173 3173 3173 3173 3174 3175
3143 3144 3146 3147 3147 3147 3147 3147 3147 3149 3149 3148 3147 3145 3145 3146 3147 3146 3145 3145 3146 3147 3148 3148 3148 3149 3150 3150 3151 3152 3151 3150 3152 3153 3152 3152 3153 3154 3155 3155 3155 3156 3157 3157 3158 3158 3158 3158 3158 3158 3157 3156 3156 3155 3155 3155 3155 3155 3156 3157 3157 3156 3157 3158 3159 3159 3160 3161 3161 3162 3163 3165 3166 3167 3168 3170 3171 3170 3170 3171 3171 3172 3173 3173 3172 3173 3174 3175
3143 3145 3145 3147 3148 3148 3148 3148 3147 3148 3149 3148 3148 3148 3146 3146 3148 3147 3147 3147 3147 3148 3148 3149 3149 3150 3151 3151 3152 3153 3153 3152 3153 3154 3153 3154 3154 3154 3155 3155 3155 3156 3157 3158 3158 3158 3158 3157 3157 3157 3156 3155 3155 3155 3154 3154 3154 3154 3155 3156 3156 3156 3156 3157 3158 3159 3160 3161 3161 3162 3165 3167 3167 3168 3168 3169 3169 3168 3168 3170 3172 3173 3173 3172 3172 3173 3174 3175
3143 3144 3145 3146 3147 3147 3148 3149 3148 3148 3149 3147 3147 3148 3147 3147 3148 3147 3147 3149 3149 3149 3149 3149 3150 3151 3151 3152 3153 3153 3153 3153 3153 3154 3155 3155 3155 3155 3155 3156 3155 3155 3156 3157 3157 3158 3158 3157 3156 3156 3156 3155 3155 3154 3154 3154 3153 3152 3154 3155 3155 3155 3155 3156 3158 3159 3160 3162 3162 3163 3165 3168 3169 3169 3168 3165 3164 3166 3169 3171 3173 3173 3172 3171 3172 3173 3173 3174